Buffalo, NY

11:31 AM EST on February 23, 2017 (GMT -0500)
Buffalo Niagara International

Weather History for KBUF - January, 2014

Change the Weather History Date:

Tuesday, January 28, 2014

  Actual Average Record
Temperature  
Mean Temperature 4 °F 24 °F  
Max Temperature 7 °F 31 °F 51 °F (1990)
Min Temperature 0 °F 18 °F -6 °F (1925)
Degree Days  
Heating Degree Days 61 41  
Month to date heating degree days 1252 1126  
Since 1 July heating degree days 3710 3541  
Cooling Degree Days 0 0  
Month to date cooling degree days 0 0  
Year to date cooling degree days 0 0  
Moisture  
Dew Point -6 °F    
Average Humidity 68    
Maximum Humidity 79    
Minimum Humidity 57    
Precipitation  
Precipitation T in 0.08 in 0.88 in (1889)
Month to date precipitation 3.16 2.91  
Year to date precipitation 3.16 2.91  
Snow  
Snow T in 0.70 in 7.10 in (2009)
Month to date snowfall 42.1 23.1  
Since 1 July snowfall 80.6 59.3  
Snow Depth 8.00 in    
Sea Level Pressure  
Sea Level Pressure 30.28 in    
Wind  
Wind Speed 17 mph (SW)    
Max Wind Speed 28 mph    
Max Gust Speed 33 mph    
Visibility 8 miles    
Events Snow    
T = Trace of Precipitation, MM = Missing Value Source: NWS Daily Summary

Daily Weather History Graph

Daily Weather History Graph

Search for Another Location

Airport or City:

Trip Planner

Search our weather history database for the weather conditions in past years. The results will help you decide how hot, cold, wet, or windy it might be!

Date:

Astronomy

Jan. 28, 2014 Rise Set
Actual Time 7:33 AM EST 5:22 PM EST
Civil Twilight 7:03 AM EST 5:52 PM EST
Nautical Twilight 6:29 AM EST 6:27 PM EST
Astronomical Twilight 5:55 AM EST 7:00 PM EST
Moon 5:14 AM EST (1/28) 3:09 PM EST (1/28)
Length of Visible Light 10h 49m
Length of Day
9h 48m
Waning Crescent, 7% of the Moon is Illuminated
Jan 28
Waning Crescent
Jan 30
New
Feb 6
First Quarter
Feb 14
Full
Feb 22
Last Quarter

Hourly Weather History & Observations

Time (EST) Temp. Windchill Dew Point Humidity Pressure Visibility Wind Dir Wind Speed Gust Speed Precip Events Conditions
12:54 AM 1.9 °F -18.7 °F -9.0 °F 60% 30.21 in 10.0 mi West 18.4 mph 25.3 mph N/A   Partly Cloudy
1:54 AM 1.0 °F -17.3 °F -11.0 °F 57% 30.23 in 10.0 mi West 13.8 mph 21.9 mph N/A   Partly Cloudy
2:54 AM -0.0 °F -21.8 °F -11.0 °F 60% 30.26 in 9.0 mi WSW 19.6 mph 25.3 mph N/A   Partly Cloudy
3:54 AM -0.0 °F -19.4 °F -9.9 °F 63% 30.27 in 10.0 mi WSW 15.0 mph - N/A   Clear
4:54 AM -0.0 °F -20.7 °F -9.0 °F 66% 30.29 in 10.0 mi WSW 17.3 mph 23.0 mph N/A   Clear
5:54 AM -0.0 °F -20.7 °F -9.0 °F 66% 30.30 in 10.0 mi SW 17.3 mph 24.2 mph N/A   Clear
6:54 AM -0.0 °F -19.4 °F -8.0 °F 69% 30.30 in 10.0 mi SW 15.0 mph - N/A   Partly Cloudy
7:54 AM 1.0 °F -17.3 °F -6.0 °F 72% 30.32 in 10.0 mi WSW 13.8 mph 20.7 mph N/A   Scattered Clouds
8:28 AM 1.4 °F -18.8 °F -5.8 °F 72% 30.27 in 10.0 mi SW 17.3 mph - 0.00 in Snow Light Snow
8:54 AM 1.9 °F -19.2 °F -5.1 °F 72% 30.34 in 10.0 mi WSW 19.6 mph 27.6 mph 0.00 in Snow Light Snow
9:21 AM 3.2 °F -18.1 °F -5.8 °F 66% 30.28 in 10.0 mi SW 20.7 mph 31.1 mph 0.00 in   Scattered Clouds
9:52 AM 1.4 °F -19.4 °F -4.0 °F 78% 30.29 in 1.2 mi SW 18.4 mph 29.9 mph 0.00 in Snow Light Snow
9:54 AM 1.9 °F -20.2 °F -4.0 °F 76% 30.35 in 1.2 mi SW 21.9 mph 29.9 mph 0.00 in Snow Light Snow
10:33 AM 1.4 °F -21.4 °F -5.8 °F 72% 30.29 in 6.0 mi SW 23.0 mph 32.2 mph 0.00 in Snow Light Snow
10:54 AM 3.0 °F -19.3 °F -4.0 °F 73% 30.37 in 6.0 mi SW 23.0 mph 31.1 mph 0.00 in Snow Light Snow
11:36 AM 3.2 °F -17.6 °F -4.0 °F 72% 30.31 in 8.0 mi SW 19.6 mph 27.6 mph 0.00 in Snow Light Snow
11:54 AM 3.0 °F -17.8 °F -2.9 °F 76% 30.37 in 4.0 mi SW 19.6 mph 26.5 mph 0.00 in Snow Light Snow
12:54 PM 3.9 °F -17.6 °F -2.9 °F 73% 30.34 in 4.0 mi SW 21.9 mph 29.9 mph 0.00 in Snow Light Snow
1:31 PM 3.2 °F -17.6 °F -2.2 °F 78% 30.26 in 6.0 mi WSW 19.6 mph 31.1 mph 0.00 in Snow Light Snow
1:54 PM 5.0 °F -17.1 °F -2.9 °F 70% 30.31 in 4.0 mi SW 24.2 mph 32.2 mph 0.00 in Snow Light Snow
2:54 PM 6.1 °F -14.8 °F -2.0 °F 69% 30.30 in 10.0 mi SW 21.9 mph 31.1 mph 0.00 in   Mostly Cloudy
3:51 PM 6.8 °F -12.9 °F -0.4 °F 72% 30.23 in 10.0 mi SW 19.6 mph 28.8 mph N/A   Scattered Clouds
3:54 PM 7.0 °F -12.1 °F -0.9 °F 70% 30.29 in 10.0 mi SW 18.4 mph 28.8 mph N/A   Scattered Clouds
4:54 PM 6.1 °F -14.8 °F -2.9 °F 67% 30.28 in 10.0 mi SW 21.9 mph 31.1 mph N/A   Scattered Clouds
5:54 PM 5.0 °F -11.6 °F -2.9 °F 70% 30.27 in 10.0 mi SW 12.7 mph 21.9 mph N/A   Scattered Clouds
6:54 PM 3.9 °F -13.0 °F -2.0 °F 76% 30.26 in 10.0 mi SW 12.7 mph 21.9 mph N/A   Scattered Clouds
7:54 PM 3.9 °F -10.4 °F -2.0 °F 76% 30.25 in 10.0 mi SW 9.2 mph - N/A   Scattered Clouds
8:54 PM 3.0 °F -13.3 °F -8.0 °F 60% 30.24 in 10.0 mi SSW 11.5 mph - N/A   Scattered Clouds
9:54 PM 3.0 °F -14.8 °F -8.0 °F 60% 30.23 in 10.0 mi SSW 13.8 mph - N/A   Scattered Clouds
10:54 PM 1.9 °F -16.2 °F -9.0 °F 60% 30.21 in 10.0 mi SSW 13.8 mph - N/A   Partly Cloudy
11:54 PM 3.0 °F -16.1 °F -9.9 °F 55% 30.20 in 10.0 mi SW 16.1 mph 27.6 mph N/A   Clear